Bookmark and Share
Track history (hours):
 

Charlotte Roush

More information available from US FCC via Universal Licensing System and Coast Guard Vessel Documentation Center.

Last reported at 2014-Apr-21 12:33 UTC. Time now 2014-Apr-24 03:52 UTC.
Position N 29°39' W 091°24'.

Length 35 m; draft 3 m.

Type: Towing. MMSI: 367362230.

NotesDate/timePositionNaut miles runAvg speedWind from/ knotsBaromVisibWave heightAir tempDewpointWater temp
2014-Apr-21 12:33N 29°39' W 091°24'8 8.5
2014-Apr-21 11:33N 29°40' W 091°14'4 3.8
2014-Apr-21 10:33N 29°41' W 091°10'5 5.0
2014-Apr-21 09:33N 29°38' W 091°05'5 4.9
2014-Apr-21 08:33N 29°37' W 090°60'3 2.5
2014-Apr-21 07:23N 29°35' W 090°58'1 1.1
2014-Apr-21 06:30N 29°34' W 090°57'9 4.3
2014-Apr-21 04:30N 29°32' W 090°47'5 4.9
2014-Apr-21 03:33N 29°35' W 090°43'3 3.2
2014-Apr-21 02:33N 29°36' W 090°40'26 0.8
2014-Apr-19 19:24N 29°56' W 090°20'1 1.1
2014-Apr-19 18:30N 29°56' W 090°22'7 7.1
2014-Apr-19 17:33N 30°00' W 090°28'6 6.2
2014-Apr-19 16:33N 30°03' W 090°34'0 0.1
2014-Apr-19 15:33N 30°03' W 090°34'6 5.8
2014-Apr-19 14:33N 30°02' W 090°41'8 0.8
2014-Apr-19 05:19N 30°01' W 090°50'11 1.6
2014-Apr-18 22:27N 30°02' W 090°37'3 3.0
2014-Apr-18 21:33N 30°03' W 090°34'39 1.1
2014-Apr-17 08:32N 29°40' W 089°58'6 5.8
2014-Apr-17 07:32N 29°45' W 090°01'19 3.0
2014-Apr-17 01:17N 29°58' W 090°17'2 2.4
2014-Apr-17 00:28N 29°57' W 090°18'3 2.9
2014-Apr-16 23:33N 29°56' W 090°22'7 7.5
2014-Apr-16 22:33N 30°01' W 090°28'7 6.9
2014-Apr-16 21:33N 30°02' W 090°36'12 1.3
2014-Apr-16 12:22N 29°60' W 090°50'1 0.1
2014-Apr-16 02:29N 29°59' W 090°49'3 3.6
2014-Apr-16 01:33N 30°01' W 090°45'3 3.3
2014-Apr-16 00:33N 30°02' W 090°42'3 3.2
2014-Apr-15 23:33N 30°03' W 090°38'3 2.9
2014-Apr-15 22:33N 30°03' W 090°35'3 3.4
2014-Apr-15 21:33N 30°03' W 090°31'0 0.3
2014-Apr-15 20:33N 30°03' W 090°31'0 0.0
2014-Apr-15 19:33N 30°03' W 090°31'0 0.0
2014-Apr-15 18:33N 30°03' W 090°31'11 0.5
2014-Apr-14 21:29N 29°56' W 090°20'14 7.2
2014-Apr-14 19:33N 30°03' W 090°34'0 0.4
2014-Apr-14 18:33N 30°03' W 090°34'0 0.1
2014-Apr-14 17:33N 30°03' W 090°34'0 0.1
2014-Apr-14 16:33N 30°03' W 090°34'0 0.2
2014-Apr-14 15:33N 30°03' W 090°35'14 1.7
2014-Apr-14 07:31N 29°59' W 090°50'4 4.1
2014-Apr-14 06:32N 30°01' W 090°46'4 4.3
2014-Apr-14 05:33N 30°02' W 090°41'10 1.3
2014-Apr-13 21:33N 30°03' W 090°29'0 0.0
2014-Apr-13 20:33N 30°03' W 090°29'2 2.0
2014-Apr-13 19:33N 30°01' W 090°29'4 3.9
2014-Apr-13 18:33N 29°59' W 090°24'4 3.9
2014-Apr-13 17:32N 29°56' W 090°22'3 0.1
2014-Apr-12 02:31N 29°57' W 090°18'0 0.0
2014-Apr-12 01:21N 29°57' W 090°18'0 0.0
2014-Apr-12 00:33N 29°57' W 090°18'0 0.0
2014-Apr-11 23:33N 29°57' W 090°18'12 1.3
2014-Apr-11 14:10N 30°03' W 090°30'5 7.6
2014-Apr-11 13:33N 30°03' W 090°36'  

Dump ship's entire track history

sailing weather and tide predictions

Charlotte Roush — WDE5112 — position and weather